1308182429326,3.53514
1308182489326,3.54278
1308182549326,3.51421
1308182609326,3.53736
1308182669326,3.50053
1308182729326,3.54231
1308182789326,3.52996
1308182849326,3.54276
1308182909326,3.53261
1308182969326,3.52986
1308183029326,3.53308
1308183089326,3.50445
1308183149326,3.53272
1308183209326,3.53471
1308183269326,3.54369
1308183329326,3.52216
1308183389326,3.50022
1308183449326,3.52861
1308183509326,3.49930
1308183569326,3.52512
1308183629326,3.51831
1308183689326,3.52738
1308183749326,3.52262
1308183809326,3.54119
1308183869326,3.52172
1308183929326,3.52559
1308183989326,3.51395
1308184049326,3.53058
1308184109326,3.51251
1308184169326,3.53002
1308184229326,3.51592
1308184289326,3.51101
1308184349326,3.54813
1308184409326,3.53688
1308184469326,3.55820
1308184529326,3.51409
1308184589326,3.51318
1308184649326,3.56542
1308184709326,3.55188
1308184769326,3.53628
1308184829326,3.52598
1308184889326,3.52720
1308184949326,3.51496
1308185009326,3.50099
1308185069326,3.52204
1308185129326,3.51578
1308185189326,3.48612
1308185249326,3.51111
1308185309326,3.52468
1308185369326,3.53361
1308185429326,3.53473
1308185489326,3.54835
1308185549326,3.54983
1308185609326,3.54354
1308185669326,3.52968
1308185729326,3.57080
1308185789326,3.51901
1308185849326,3.51767
1308185909326,3.53436
1308185969326,3.55799
1308186029336,3.55778
1308186089336,3.51554
1308186149337,3.55418
1308186209337,3.53953
1308186269337,3.57622
1308186329337,3.54922
1308186389337,3.55977
1308186449337,3.54574
1308186509337,3.56940
1308186569337,3.56045
1308186629337,3.55201
1308186689337,3.58120
1308186749337,3.56868
1308186809337,3.57898
1308186869337,3.54305
1308186929337,3.55407
1308186989337,3.55527
1308187049337,3.54765
1308187109336,3.54180
1308187169336,3.52440
1308187229336,3.53862
1308187289336,3.53649
1308187349336,3.54852
1308187409336,3.54160
1308187469337,3.50045
1308187529337,3.50222
1308187589337,3.49041
1308187649337,3.47429
1308187709337,3.52151
1308187769337,3.53831
1308187829337,3.53232
1308187889337,3.55384
1308187949337,3.54167
1308188009337,3.52892
1308188069337,3.53736
1308188129337,3.55902
1308188189337,3.54394
1308188249337,3.55015
1308188309337,3.52758
1308188369337,3.53012
1308188429337,3.55369
1308188489336,3.55049
1308188549336,3.53217
1308188609336,3.56707
1308188669336,3.59411
1308188729336,3.56477
1308188789336,3.55240
1308188849337,3.55941
1308188909337,3.57413
1308188969337,3.58738
1308189029337,3.53900
1308189089337,3.54242
1308189149337,3.54735
1308189209337,3.59084
1308189269337,3.56728
1308189329337,3.57380
1308189389337,3.57170
1308189449337,3.58330
1308189509337,3.56402
1308189569337,3.56842
1308189629347,3.55724
1308189689347,3.57819
1308189749347,3.56103
1308189809347,3.57080
1308189869347,3.56926
1308189929347,3.60560
1308189989347,3.56617
1308190049347,3.59233
1308190109347,3.57892
1308190169347,3.62346
1308190229347,3.60217
1308190289347,3.59144
1308190349347,3.57510
1308190409347,3.59455
1308190469347,3.57540
1308190529347,3.57198
1308190589347,3.56411
1308190649347,3.58680
1308190709347,3.55082
1308190769347,3.54133
1308190829347,3.55587
1308190889347,3.57906
1308190949347,3.57067
1308191009347,3.57172
1308191069347,3.57211
1308191129347,3.56806
1308191189347,3.55078
1308191249347,3.56499
1308191309347,3.56775
1308191369347,3.58572
1308191429347,3.58903
1308191489347,3.54524
1308191549347,3.59548
1308191609347,3.53487
1308191669347,3.58582
1308191729347,3.56867
1308191789347,3.54481
1308191849347,3.55665
1308191909347,3.56887
1308191969347,3.55433
1308192029347,3.54040
1308192089347,3.57195
1308192149347,3.55524
1308192209347,3.54615
1308192269347,3.55992
1308192329347,3.59654
1308192389347,3.56510
1308192449347,3.58949
1308192509347,3.60158
1308192569347,3.57252
1308192629347,3.54656
1308192689347,3.55955
1308192749347,3.57721
1308192809347,3.57606
1308192869347,3.53992
1308192929347,3.59070
1308192989347,3.55454
1308193049347,3.55826
1308193109347,3.55799
1308193169347,3.56263
1308193229357,3.56543
1308193289357,3.57686
1308193349357,3.56924
1308193409357,3.55548
1308193469357,3.58079
1308193529357,3.55282
1308193589357,3.55169
1308193649357,3.55088
1308193709357,3.54635
1308193769357,3.59613
1308193829357,3.52825
1308193889357,3.58207
1308193949357,3.56921
1308194009357,3.57435
1308194069357,3.55536
1308194129357,3.54930
1308194189357,3.62650
1308194249357,3.56620
1308194309357,3.58165
1308194369357,3.55959
1308194429357,3.58008
1308194489357,3.54554
1308194549357,3.55134
1308194609357,3.51707
1308194669357,3.57762
1308194729357,3.54896
1308194789357,3.55106
1308194849357,3.56955
1308194909357,3.54599
1308194969357,3.53723
1308195029357,3.55863
1308195089357,3.57383
1308195149357,3.52701
1308195209357,3.55325
1308195269357,3.56440
1308195329357,3.55999
1308195389357,3.57086
1308195449357,3.56939
1308195509357,3.55673
1308195569357,3.55226
1308195629357,3.54279
1308195689357,3.58080
1308195749357,3.60407
1308195809357,3.57161
1308195869357,3.52832
1308195929357,3.55714
1308195989357,3.57954
1308196049357,3.55639
1308196109357,3.55216
1308196169357,3.55181
1308196229357,3.56940
1308196289357,3.54501
1308196349357,3.54361
1308196409357,3.56597
1308196469357,3.58987
1308196529357,3.55123
1308196589357,3.55899
1308196649357,3.57017
1308196709357,3.63564
1308196769357,3.59663
1308196829366,3.62307
1308196889366,3.61895
1308196949366,3.64335
1308197009366,3.63702
1308197069366,3.63969
1308197129366,3.60888
1308197189366,3.66285
1308197249366,3.64497
1308197309366,3.64249
1308197369366,3.63240
1308197429366,3.61312
1308197489366,3.61038
1308197549366,3.59638
1308197609366,3.58608
1308197669366,3.59127
1308197729366,3.61721
1308197789366,3.59181
1308197849366,3.58235
1308197909366,3.59623
1308197969366,3.60737
1308198029366,3.58317
1308198089366,3.57940
1308198149366,3.54676
1308198209366,3.58353
1308198269366,3.59079
1308198329366,3.54254
1308198389366,3.58640
1308198449366,3.59060
1308198509366,3.58849
1308198569366,3.55520
1308198629366,3.58362
1308198689366,3.58367
1308198749366,3.57681
1308198809366,3.58260
1308198869366,3.55948
1308198929366,3.58269
1308198989366,3.58785
1308199049366,3.57412
1308199109366,3.59415
1308199169366,3.60141
1308199229366,3.58079
1308199289366,3.59706
1308199349366,3.58025
1308199409366,3.57827
1308199469366,3.59933
1308199529366,3.56451
1308199589366,3.54912
1308199649366,3.58809
1308199709366,3.58211
1308199769366,3.55822
1308199829366,3.57660
1308199889366,3.56330
1308199949366,3.57171
1308200009366,3.54255
1308200069366,3.56777
1308200129366,3.59011
1308200189366,3.60871
1308200249366,3.55804
1308200309366,3.56760
1308200369366,3.56626
1308200429376,3.54085
1308200489376,3.56015
1308200549376,3.55492
1308200609376,3.55453
1308200669376,3.57141
1308200729376,3.56366
1308200789376,3.55813
1308200849376,3.56549
1308200909376,3.56443
1308200969376,3.54109
1308201029376,3.52681
1308201089376,3.53852
1308201149376,3.58471
1308201209376,3.57564
1308201269376,3.56996
1308201329376,3.57209
1308201389376,3.56230
1308201449376,3.56071
1308201509376,3.54372
1308201569376,3.55244
1308201629376,3.57093
1308201689376,3.56008
1308201749376,3.53148
1308201809376,3.54227
1308201869376,3.55208
1308201929376,3.52878
1308201989376,3.57311
1308202049376,3.54675
1308202109376,3.53541
1308202169376,3.55862
1308202229376,3.57303
1308202289376,3.55976
1308202349376,3.55955
1308202409376,3.53730
1308202469376,3.54124
1308202529376,3.54215
1308202589376,3.55146
1308202649376,3.54500
1308202709376,3.56053
1308202769376,3.54663
1308202829376,3.55129
1308202889376,3.53585
1308202949376,3.51921
1308203009376,3.55097
1308203069376,3.52509
1308203129376,3.55246
1308203189376,3.56514
1308203249376,3.52338
1308203309376,3.53889
1308203369376,3.54181
1308203429376,3.52499
1308203489376,3.51555
1308203549376,3.52832
1308203609376,3.51060
1308203669376,3.52726
1308203729376,3.52789
1308203789376,3.53474
1308203849376,3.52641
1308203909376,3.53734
1308203969376,3.53754
1308204029385,3.52785
1308204089385,3.52913
1308204149385,3.49464
1308204209385,3.55828
1308204269385,3.48537
1308204329385,3.51283
1308204389385,3.54645
1308204449385,3.55432
1308204509385,3.50319
1308204569385,3.53893
1308204629385,3.56202
1308204689385,3.52468
1308204749385,3.55180
1308204809385,3.53986
1308204869385,3.54951
1308204929385,3.53562
1308204989385,3.52928
1308205049385,3.52890
1308205109385,3.54261
1308205169385,3.55191
1308205229385,3.57213
1308205289385,3.58556
1308205349385,3.63366
1308205409385,3.74980
1308205469385,3.68936
1308205529385,3.65329
1308205589385,3.61671
1308205649385,3.61229
1308205709385,3.56832
1308205769385,3.58494
1308205829385,3.54531
1308205889385,3.56738
1308205949385,3.56924
1308206009385,3.55584
1308206069385,3.55859
1308206129385,3.55616
1308206189385,3.58057
1308206249385,3.56441
1308206309385,3.55641
1308206369385,3.57945
1308206429385,3.61427
1308206489385,3.57803
1308206549385,3.56600
1308206609385,3.54673
1308206669385,3.55494
1308206729385,3.55258
1308206789385,3.56151
1308206849385,3.55762
1308206909385,3.55176
1308206969385,3.50699
1308207029385,3.54149
1308207089385,3.50964
1308207149385,3.51837
1308207209385,3.53028
1308207269385,3.53536
1308207329385,3.51706
1308207389385,3.56879
1308207449385,3.56980
1308207509385,3.51919
1308207569385,3.51643
1308207629395,3.53438
1308207689395,3.51490
1308207749395,3.53177
1308207809395,3.53621
1308207869395,3.51916
1308207929395,3.50840
1308207989395,3.53756
1308208049395,3.50665
1308208109395,3.50144
1308208169395,3.50932
1308208229395,3.51750
1308208289395,3.53262
1308208829395,3.50523
1308208889395,3.53228
1308208949395,3.53285
1308209009395,3.52391
1308209069395,3.53679
1308209129395,3.50529
1308209189395,3.50211
1308209249395,3.48720
1308209309395,3.52405
1308209369395,3.51230
1308209429395,3.49579
1308209489395,3.51999
1308209549395,3.52219
1308209609395,3.51576
1308209669395,3.49898
1308209729395,3.51450
1308209789395,3.51850
1308209849395,3.49357
1308209909395,3.51787
1308209969395,3.53322
1308210029395,3.48487
1308210089395,3.52833
1308210149395,3.51939
1308210209395,3.52615
1308210269395,3.51574
1308210329395,3.51785
1308210389395,3.53716
1308210449395,3.51712
1308210509395,3.51981
1308210569395,3.50021
1308210629395,3.50184
1308210689395,3.49916
1308210749395,3.52302
1308210809395,3.48864
1308210869395,3.48119
1308210929395,3.47361
1308210989395,3.51674
1308211049395,3.50647
1308211109395,3.49782
1308211169395,3.48119
1308211229404,3.50229
1308211289404,3.53014
1308211349404,3.50127
1308211409404,3.51018
1308211469404,3.50185
1308211529404,3.50931
1308211589404,3.49628
1308211649404,3.51684
1308211709404,3.50521
1308211769404,3.52782
1308211829404,3.50700
1308211889404,3.51915
1308211949404,3.52954
1308212009404,3.51726
1308212069404,3.50275
1308212129404,3.51269
1308212189404,3.47876
1308212249404,3.50991
1308212309404,3.53503
1308212369404,3.47696
1308212429404,3.52227
1308212489404,3.46874
1308212549404,3.49808
1308212609404,3.48131
1308212669404,3.47380
1308212729404,3.47305
1308212789404,3.48244
1308212849404,3.52841
1308212909404,3.46775
1308212969404,3.45241
1308213029404,3.51809
1308213089404,3.48493
1308213149404,3.49897
1308213209404,3.50648
1308213269404,3.51290
1308213329404,3.49941
1308213389404,3.52934
1308213449404,3.57727
1308213509404,3.50351
1308213569404,3.53750
1308213629404,3.53820
1308213689404,3.51534
1308213749404,3.51910
1308213809404,3.49344
1308213869404,3.51927
1308213929404,3.53880
1308213989404,3.53526
1308214049404,3.52952
1308214109404,3.49365
1308214169404,3.51795
1308214229404,3.47657
1308214289404,3.51314
1308214349404,3.49729
1308214409404,3.50026
1308214469404,3.51494
1308214529404,3.47742
1308214589404,3.49662
1308214649404,3.51105
1308214709404,3.51198
1308214769404,3.50802
1308214829413,3.49972
1308214889413,3.51177
1308214949413,3.49042
1308215009413,3.50435
1308215069413,3.48721
1308215129413,3.51722
1308215189413,3.53508
1308215249413,3.49275
1308215309413,3.48441
1308215369413,3.50978
1308215429413,3.53258
1308215489413,3.54457
1308215549413,3.52738
1308215609413,3.53576
1308215669413,3.54818
1308215729413,3.52225
1308215789413,3.51469
1308215849413,3.50956
1308215909413,3.50962
1308215969413,3.50095
1308216029413,3.51505
1308216089413,3.46068
1308216149413,3.48401
1308216209413,3.52394
1308216269413,3.49003
1308216329413,3.49719
1308216389413,3.48148
1308216449413,3.49556
1308216509413,3.50585
1308216569413,3.49991
1308216629413,3.48198
1308216689413,3.50887
1308216749413,3.49627
1308216809413,3.49550
1308216869413,3.49515
1308216929413,3.48422
1308216989413,3.49813
1308217049413,3.50359
1308217109413,3.49142
1308217169413,3.50579
1308217229413,3.52392
1308217289413,3.51961
1308217349413,3.51026
1308217409413,3.51723
1308217469413,3.49381
1308217529413,3.49682
1308217589413,3.49904
1308217649413,3.49707
1308217709413,3.49302
1308217769413,3.53713
1308217829413,3.50702
1308217889413,3.50702
1308217949413,3.50337
1308218009413,3.49268
1308218069413,3.48219
1308218129413,3.49342
1308218189413,3.49995
1308218249413,3.49065
1308218309413,3.49901
1308218369413,3.49458
1308218429423,3.53216
1308218489422,3.51416
1308218549422,3.47606
1308218609422,3.46026
1308218669422,3.46497
1308218729422,3.50278
1308218789422,3.51221
1308218849422,3.49581
1308218909422,3.47921
1308218969422,3.52557
1308219029422,3.51176
1308219089422,3.51285
1308219149422,3.49356
1308219209422,3.53433
1308219269422,3.52473
1308219329422,3.52709
1308219389422,3.52715
1308219449422,3.62503
1308219509422,3.90861
1308219569422,4.11899
1308219629422,4.23173
1308219689422,4.32206
1308219749422,4.31065
1308219809422,4.26102
1308219869422,4.19840
1308219929422,4.12838
1308219989422,4.08127
1308220049422,4.07574
1308220109422,4.04546
1308220169422,3.99409
1308220229422,3.98078
1308220289422,3.93280
1308220349422,3.92512
1308220409422,3.88775
1308220469422,3.88525
1308220529422,3.87486
1308220589422,3.84556
1308220649422,3.84506
1308220709422,3.82612
1308220769422,3.80554
1308220829422,3.80544
1308220889422,3.78669
1308220949422,3.75092
1308221009422,3.80267
1308221069422,3.75385
1308221129423,3.73966
1308221189422,3.71054
1308221249422,3.69686
1308221309422,3.67060
1308221369422,3.70297
1308221429422,3.66676
1308221489422,3.66079
1308221549422,3.68079
1308221609422,3.70827
1308221669422,3.73403
1308221729422,3.71948
1308221789422,3.69488
1308221849422,3.66998
1308221909422,3.67589
1308221969422,3.65826
1308222029432,3.62321
1308222089432,3.62221
1308222149432,3.59702
1308222209432,3.61352
1308222269432,3.63101
1308222329432,3.61373
1308222389432,3.61140
1308222449432,3.58602
1308222509432,3.58409
1308222569432,3.59737
1308222629432,3.59908
1308222689432,3.58318
1308222749432,3.58470
1308222809432,3.57353
1308222869432,3.54723
1308222929432,3.57431
1308222989432,3.55663
1308223049432,3.54120
1308223109432,3.52143
1308223169432,3.54150
1308223229432,3.57702
1308223289432,3.55178
1308223349432,3.54476
1308223409432,3.54028
1308223469432,3.58506
1308223529432,3.56560
1308223589432,3.49488
1308223649432,3.53272
1308223709432,3.54816
1308223769432,3.50055
1308223829432,3.53112
1308223889432,3.52706
1308223949432,3.51941
1308224009432,3.52314
1308224069432,3.52740
1308224129432,3.53885
1308224189432,3.52715
1308224249432,3.51705
1308224309432,3.55642
1308224369432,3.50976
1308224429432,3.50465
1308224489432,3.51913
1308224549432,3.49557
1308224609432,3.50113
1308224669432,3.53317
1308224729432,3.52750
1308224789432,3.52953
1308224849432,3.54469
1308224909432,3.52296
1308224969432,3.51856
1308225029432,3.51662
1308225089432,3.50700
1308225149432,3.51156
1308225209432,3.49233
1308225269432,3.50659
1308225329432,3.48285
1308225389432,3.50855
1308225449432,3.55938
1308225509432,3.55305
1308225569432,3.61439
1308225629441,3.59574
1308225689441,3.63845
1308225749441,3.60801
1308225809441,3.63527
1308225869441,3.62536
1308225929441,3.61766
1308225989441,3.63100
1308226049441,3.67524
1308226109441,3.68721
1308226169441,3.72683
1308226229441,3.67129
1308226289441,3.64655
1308226349441,3.59827
1308226409441,3.60174
1308226469441,3.56775
1308226529441,3.54593
1308226589441,3.54209
1308226649441,3.55073
1308226709441,3.53199
1308226769441,3.52794
1308226829441,3.51931
1308226889441,3.51956
1308226949441,3.53871
1308227009441,3.53454
1308227069441,3.55683
1308227129441,3.51819
1308227189441,3.50483
1308227249441,3.50366
1308227309441,3.49228
1308227369441,3.50807
1308227429441,3.50195
1308227489441,3.50382
1308227549441,3.52187
1308227609441,3.50510
1308227669441,3.49370
1308227729441,3.51577
1308227789441,3.54065
1308227849441,3.51544
1308227909441,3.49259
1308227969441,3.50006
1308228029441,3.53100
1308228089441,3.49152
1308228149441,3.49967
1308228209441,3.53002
1308228269441,3.49597
1308228329441,3.51138
1308228389441,3.53782
1308228449441,3.48380
1308228509441,3.55650
1308228569441,3.51620
1308228629441,3.51773
1308228689441,3.49970
1308228749441,3.49873
1308228809441,3.49411
1308228869441,3.52043
1308228929441,3.49151
1308228989441,3.50586
1308229049441,3.52543
1308229109441,3.49948
1308229169441,3.49293
1308229229450,3.50010
1308229289450,3.51197
1308229349450,3.49496
1308229409450,3.51667
1308229469450,3.49821
1308229529450,3.49946
1308229589450,3.48739
1308229649450,3.50966
1308229709450,3.51357
1308229769450,3.49782
1308229829450,3.51371
1308229889450,3.51738
1308229949450,3.51537
1308230009450,3.53262
1308230069450,3.50467
1308230129450,3.49465
1308230189450,3.49287
1308230249450,3.51598
1308230309450,3.50745
1308230369450,3.53922
1308230429450,3.53510
1308230489450,3.52049
1308230549450,3.51512
1308230609450,3.53598
1308230669450,3.54139
1308230729450,3.51489
1308230789450,3.53366
1308230849450,3.51620
1308230909450,3.53043
1308230969450,3.50825
1308231029450,3.51328
1308231089450,3.51473
1308231149450,3.52764
1308231209450,3.52406
1308231269450,3.54970
1308231329450,3.50280
1308231389450,3.54103
1308231449450,3.53264
1308231509450,3.53369
1308231569450,3.52433
1308231629450,3.52433
1308231689450,3.52184
1308231749450,3.52469
1308231809450,3.53211
1308231869450,3.53089
1308231929450,3.54915
1308231989450,3.52550
1308232049450,3.56023
1308232109450,3.50979
1308232169450,3.50434
1308232229450,3.53613
1308232289450,3.54161
1308232349450,3.53077
1308232409450,3.55035
1308232469450,3.51383
1308232529450,3.55533
1308232589450,3.51369
1308232649450,3.51181
1308232709450,3.54045
1308232769450,3.57074
1308232829459,3.58718
1308232889459,3.53877
1308232949459,3.54423
1308233009459,3.55340
1308233069459,3.52426
1308233129459,3.52235
1308233189459,3.53176
1308233249459,3.54648
1308233309459,3.54959
1308233369459,3.51366
1308233429459,3.52421
1308233489459,3.55169
1308233549459,3.56512
1308233609459,3.54215
1308233669459,3.57474
1308233729459,3.52161
1308233789459,3.55121
1308233849459,3.51061
1308233909459,3.55940
1308233969459,3.56665
1308234029459,3.54238
1308234089459,3.53025
1308234149459,3.52689
1308234209459,3.54457
1308234269459,3.51743
1308234329459,3.52619
1308234389459,3.57106
1308234449459,3.54552
1308234509459,3.51975
1308234569459,3.56188
1308234629459,3.54729
1308234689459,3.51822
1308234749459,3.57173
1308234809459,3.56193
1308234869459,3.53401
1308234929459,3.53866
1308234989459,3.53964
1308235049459,3.50891
1308235109459,3.55571
1308235169459,3.55060
1308235229459,3.53892
1308235289459,3.53562
1308235349459,3.54822
1308235409459,3.52730
1308235469459,3.52390
1308235529459,3.51421
1308235589459,3.55855
1308235649459,3.53801
1308235709459,3.53370
1308235769459,3.53285
1308235829459,3.52439
1308235889459,3.55859
1308235949459,3.53544
1308236009459,3.55897
1308236069459,3.54220
1308236129459,3.52467
1308236189459,3.53813
1308236249459,3.58567
1308236309459,3.53920
1308236369459,3.53359
1308236429469,3.55188
1308236489469,3.56694
1308236549469,3.56553
1308236609469,3.51934
1308236669469,3.52359
1308236729469,3.54262
1308236789469,3.56857
1308236849469,3.54422
1308236909469,3.52225
1308236969469,3.59029
1308237029469,3.53255
1308237089469,3.54314
1308237149469,3.53767
1308237209469,3.56975
1308237269469,3.52991
1308237329469,3.56783
1308237389469,3.55308
1308237449469,3.56853
1308237509469,3.53297
1308237569469,3.54819
1308237629469,3.54886
1308237689469,3.57035
1308237749469,3.54016
1308237809469,3.57689
1308237869469,3.51647
1308237929469,3.53797
1308237989469,3.55570
1308238049469,3.56236
1308238109469,3.54442
1308238169469,3.55556
1308238229469,3.54731
1308238289469,3.53162
1308238349469,3.57638
1308238409469,3.55210
1308238469469,3.55474
1308238529469,3.54209
1308238589469,3.55261
1308238649469,3.55741
1308238709469,3.57621
1308238769469,3.51397
1308238829469,3.63700
1308238889469,3.68506
1308238949469,3.65408
1308239009469,3.68172
1308239069469,3.64879
1308239129469,3.60486
1308239189469,3.61108
1308239249469,3.60856
1308239309469,3.58643
1308239369469,3.59043
1308239429469,3.59759
1308239489469,3.55689
1308239549469,3.57859
1308239609469,3.57041
1308239669469,3.57074
1308239729469,3.56593
1308239789469,3.56752
1308239849469,3.53401
1308239909469,3.56572
1308239969469,3.55970
1308240029478,3.55597
1308240089478,3.56138
1308240149478,3.55157
1308240209478,3.53680
1308240269478,3.55086
1308240329478,3.55785
1308240389478,3.55396
1308240449478,3.54697
1308240509478,3.55614
1308240569478,3.56554
1308240629478,3.57129
1308240689478,3.52311
1308240749478,3.55474
1308240809478,3.56552
1308240869478,3.56200
1308240929478,3.54091
1308240989478,3.55460
1308241049478,3.55833
1308241109478,3.57977
1308241169478,3.56690
1308241229478,3.58712
1308241289478,3.53659
1308241349478,3.55074
1308241409478,3.58830
1308241469478,3.55359
1308241529478,3.53964
1308241589478,3.55986
1308241649478,3.55601
1308241709478,3.55444
1308241769478,3.54308
1308241829478,3.53610
1308241889478,3.54371
1308241949478,3.53522
1308242009478,3.52643
1308242069478,3.53627
1308242129478,3.53126
1308242189478,3.55737
1308242249478,3.52867
1308242309478,3.51187
1308242369478,3.52267
1308242429478,3.53983
1308242489478,3.50478
1308242549478,3.52719
1308242609478,3.54369
1308242669478,3.55272
1308242729478,3.55463
1308242789478,3.56225
1308242849478,3.53637
1308242909478,3.53243
1308242969478,3.56068
1308243029478,3.54305
1308243089478,3.53299
1308243149478,3.55968
1308243209478,3.51977
1308243269478,3.52952
1308243329478,3.55453
1308243389478,3.54393
1308243449478,3.55391
1308243509478,3.51017
1308243569478,3.51952
1308243629488,3.50681
1308243689488,3.52142
1308243749488,3.53653
1308243809488,3.54649
1308243869488,3.54548
1308243929488,3.50221
1308243989488,3.53257
1308244049488,3.54348
1308244109488,3.54805
1308244169488,3.49729
1308244229488,3.56398
1308244289488,3.53655
1308244349488,3.54144
1308244409488,3.51851
1308244469488,3.53504
1308244529488,3.51345
1308244589488,3.52136
1308244649488,3.52539
1308244709488,3.52516
1308244769488,3.56564
1308244829488,3.49663
1308244889488,3.51214
1308244949488,3.49748
1308245009488,3.50755
1308245069488,3.56206
1308245129488,3.51830
1308245189488,3.57009
1308245249488,3.53246
1308245309488,3.52616
1308245369488,3.55989
1308245429488,3.54506
1308245489488,3.51505
1308245549488,3.54307
1308245609488,3.54673
1308245669488,3.55672
1308245729488,3.55732
1308245789488,3.52453
1308245849488,3.56359
1308245909488,3.54768
1308245969488,3.53675
1308246029488,3.57404
1308246089488,3.52843
1308246149488,3.55360
1308246209488,3.54495
1308246269488,3.53330
1308246329488,3.53852
1308246389488,3.53285
1308246449488,3.49839
1308246509488,3.52933
1308246569488,3.52623
1308246629488,3.53054
1308246689488,3.53578
1308246749488,3.52908
1308246809488,3.53698
1308246869488,3.55505
1308246929488,3.54274
1308246989488,3.54314
1308247049488,3.54693
1308247109488,3.55738
1308247169488,3.57514
1308247229498,3.56140
1308247289498,3.52352
1308247349498,3.56949
1308247409498,3.53268
1308247469498,3.54110
1308247529498,3.54684
1308247589498,3.54103
1308247649498,3.55641
1308247709498,3.57006
1308247769498,3.53215
1308247829498,3.53095
1308247889498,3.55929
1308247949498,3.55255
1308248009498,3.54353
1308248069498,3.54300
1308248129498,3.57780
1308248189498,3.56456
1308248249498,3.53904